Regional Weather Roundup
Issued by NWS Portland, ME

Home | Current Version | Previous Version | Text Only | Print | Product List | Glossary On
Versions: 1 2 3 4 5 6 7 8 9 10 11 12 13 14 15 16 17 18 19 20 21 22 23 24 25 26 27 28 29 30 31 32 33 34 35 36 37 38 39 40 41 42 43 44 45 46 47 48 49 50
392
ASUS41 KGYX 100310
RWRGYX
WEATHER ROUNDUP FOR MAINE AND NEW HAMPSHIRE
NATIONAL WEATHER SERVICE GRAY ME
1000 PM EST TUE FEB 09 2016

MEZ002-005-006-010-012-015-018-020-021-024-026-027-029-100400-
MAINE

CITY           SKY/WX    TMP DP  RH WIND       PRES   REMARKS
PORTLAND       CLEAR     15  12  88 N3        29.63R
SANFORD        PTCLDY     7   1  78 CALM      29.61S
BAR HARBOR     CLOUDY    21  19  93 NW3       29.57S
WISCASSET      CLEAR     13  10  88 CALM      29.63R
FRYEBURG       CLOUDY    19  14  81 CALM      29.59S
LEWISTONAUBURN CLOUDY    10   5  79 CALM      29.59R
AUGUSTA        CLEAR     14  12  92 N3        29.59S
WATERVILLE     CLEAR     12   9  87 NW6       29.55F
BANGOR         LGT SNOW  20  17  88 NW7       29.57F FOG
GREENVILLE       N/A      9   7  92 NE3       29.47F
MILLINOCKET    LGT SNOW  19  14  81 NW3       29.57F
HOULTON        LGT SNOW  17  14  88 CALM      29.53F FOG
PRESQUE ISLE   FLURRIES  17  14  88 N7        29.56F
FRENCHVILLE    LGT SNOW  15  11  83 NE6       29.53F FOG
CARIBOU        LGT SNOW  16  13  88 N6        29.54F FOG
$$

NHZ002-005-008-009-011-012-014-100400-
NEW HAMPSHIRE

CITY           SKY/WX    TMP DP  RH WIND       PRES   REMARKS
PORTSMOUTH     PTCLDY    20  13  76 NW2       29.61S
ROCHESTER      CLEAR     16  12  84 CALM      29.60S
NASHUA         CLEAR     14  12  92 NW3       29.63R
MANCHESTER     MOCLDY    18  15  88 S3        29.61R
CONCORD        CLEAR     13   9  84 CALM      29.61R
LACONIA        CLEAR     12   9  85 CALM      29.59S
PLYMOUTH       FAIR      16  14  93 CALM      29.58S FOG
BERLIN         CLOUDY    20  13  74 N3        29.51S
WHITEFIELD     CLOUDY    23  16  74 CALM      29.52S
JAFFREY        CLOUDY    12   9  87 CALM      29.57R
KEENE          CLOUDY    19  14  79 CALM      29.60R
LEBANON        CLOUDY    22  17  81 CALM      29.56F
MT WASHINGTON  BLWGSNOW   7   7 100 W33         N/A  VSB 1/16WCI -18
$$

VTZ005-007-008-100400-
VERMONT

CITY           SKY/WX    TMP DP  RH WIND       PRES   REMARKS
ST JOHNSBURY     N/A     19  13  77 MISG      29.53F
MONTPELIER     CLOUDY    21  16  81 S7        29.55F
BURLINGTON     LGT SNOW  25  20  81 CALM      29.55F
$$

MAZ007-012-024-CTZ003-RIZ002-NYZ038-NYZ072-100400-
SOUTHERN NEW ENGLAND AND NY

CITY           SKY/WX    TMP DP  RH WIND       PRES   REMARKS
BOSTON         PTCLDY    26  17  68 CALM      29.64R
WORCESTER      MOCLDY    20  15  81 SW5       29.57S
NANTUCKET      CLOUDY    33  27  78 N6        29.61R
PROVIDENCE     MOCLDY    24  18  77 CALM      29.63F
HARTFORD       CLOUDY    24  18  77 CALM      29.61S
ALBANY         CLOUDY    28  24  85 S3        29.59S
NEW YORK CITY  CLOUDY    33  24  69 SE6       29.62S
$$

ANZ081-ANZ082-ANZ150-NHZ014-MEZ023>029-100400-
COASTAL MARINE OBSERVATIONS

STATION/POSITION TIME  TEMP    WIND        PRES    WAVE
                       AIR SEA DIR/SP/G            HT/PER
                 (UTC) (F)     (DEG/KT/KT) (MB)    (FT/S)
MOUNT DESERT ROC 0300   26     320/ 11/ 13 1000.9S
MATINICUS ROCK   0200          320/ 13/ 15 1001.4F
ISLE OF SHOALS   0200   28     320/  3/  6 1002.3R
JEFFREYS LEDGE   0204      43                N/A     6/13
CASHES LEDGE BUO 0250   29 43  310/  8/ 12 1001.8R   6/13
GEORGES BANK BUO 0250   39 46               999.4R   9/13
$$

.............KEY..............
   WCI - WIND CHILL
   TC  - TEMPERATURE IN CELSIUS
   VSB - VISIBILITY IN MILES
   HX  - HEAT INDEX
   FAIR- INDICATES FEW OR NO CLOUDS BELOW 12,000 FT, WITH NO
         SIGNIFICANT WEATHER AND/OR OBSTRUCTIONS TO VISIBILITY.






USA.gov is the U.S. government's official web portal to all federal, state and local government web resources and services.